NOAA 16 DEB, 41058

Orbit data source: Space-Track

NOAA 16 DEB, 41058 is space debris in SSO originally from a launch on Thu, 21 Sep 2000 UTC launched from the Air Force Western Test Range (AFWTR). Debris objects in space refer to the collection of defunct objects orbiting the Earth. Examples of debris include non-operational satellites, rocket bodies, and fragments generated from explosions, collisions, or faulty payload assembly.

Loading next visibility...
Identifier
41058, 2000-055R
Orbit
SSO
Country
Flag of USUS
Related business
Manufacturer
Unknown
Mission
Spacecraft
Bus & Motor
Unknown
Mass
Unknown
Launch date (UTC)
2000-09-21 (26 years ago)
Launch vehicle
Unknown
Launch site
Air Force Western Test Range (AFWTR)
Object type
Payload
Rocket body
Debris
Shape & HBR
Unknown shape, 0.1 m
Radar Cross Section
Small (<0.1 m²)

Expand to show TLE details & history
Last TLE update: 23 hours ago

TLE from 23 hours ago
0 NOAA 16 DEB
1 41058U 00055R   26119.45332506  .00000945  00000-0  52934-3 0  9999
2 41058  98.5915 118.7342 0021760 286.7235  73.1550 14.12901835536056
Epoch: 2026-04-29T10:52Z
TLE epoch observation values (Epoch: 2026-04-29T10:52:47.285Z)
Latitude
-0°
Longitude
98.12311°
Altitude
847.84 km
Speed
7.431 km/s
True Right ascension
07h 54m 56s
True Declination
0° 00' 00"
Sunlit
Object was in daylight at epoch
Visualization orbit readout
Latitude
Unknown
Longitude
Unknown
Altitude
Unknown
Speed
Unknown
Apparent Right ascension
Unknown
Apparent Declination
Unknown
Sunlit
N/A
Visualization observer readout
Local Sidereal Time
17:03:35
Azimuth
Unknown
Elevation
Unknown
Doppler factor
Unknown
Orbital elements
Apogee altitude
862.342 km
Perigee altitude
830.9 km
Semi-major axis
7,224.758 km
Eccentricity
0.00218
Inclination
98.5915°
RAAN
118.7342°
Arg. of periapsis
286.7235°
True anomaly
73.39384°
Mean anomaly
73.155°
Eccentric anomaly
73.2744°
Mean motion
3.53434 °/min
Orbital period
101.86 mins
BSTAR
0.00052934
Loading maneuver chart data...
Computing Atmospheric mass density...
Loading historical data...
Loading historical data...
Loading historical data...
Loading historical data...
Loading historical data...
Loading historical data...
Loading historical data...

Documentation

Showing up to 5 results
|